Weather in Kolchanovo

Russia / Saint-Petersburg and Leningrad Oblast     60°02′09″N   32°35′24″E
temp.,
°C
wind,
m/s
gust,
m/s
humid.,
%
clouds,
%
prec.,
mm/h
press.,
hPa
HPBL,
m
19 april, mon
mon1900:00+5ene398728 0.0 1030290
03:00+3ene279138 0.0 1030185
06:00+2ene27845 0.0 1030160
09:00+7e36604 0.0 1030514
12:00+10e46360 0.0 10291277
15:00+12e45320 0.0 10291572
18:00+11e35380 0.0 10281646
21:00+5ene396035 0.0 1028206
20 april, tue
tue2000:00+4e31069100 0.0 1028243
03:00+2e287672 0.0 1028164
06:00+1ese397762 0.0 1027240
09:00+6ese48510 0.0 1026763
12:00+9ese57355 0.0 10241564
15:00+11ese573385 0.0 10221849
18:00+10ese464595 0.0 10201794
21:00+5se4107290 0.0 1020622
21 april, wed
wed2100:00+4ese3995100 0.0 1018643
03:00+5ese3885100 0.1 1015780
06:00+3ene3995100 0.4 1012515
09:00+4ne3681100 0.9 1009499
12:00+4e4676100 0.2 1005841
15:00+3ene2697100 2.9 1004331
18:00+3nne1296100 0.3 1002314
21:00+2nw2297100 0.5 1001355
22 april, thu
thu2200:00+2w1299100 0.1 1001148
03:00+2wsw2399100 0.6 1002262
06:00+1wsw2499100 0.9 1003185
09:00+2wsw2699100 1.4 1005303
12:00+3sw3897100 0.1 1007564
15:00+5sw4786100 0.2 1009861
18:00+6ssw368460 0.0 1010416
21:00+3sse279550 0.0 1011128
23 april, fri
fri2300:00+2se3109557 0.0 1011189
03:00+3se4129378 0.0 1010281
06:00+4sse3894100 0.1 1009271
09:00+7se368796 0.2 1007422
12:00+9s41286100 1.3 10051522
15:00+3w3596100 3.4 1008456
18:00+4wsw1393100 0.8 1008439
21:00+3se2197100 1.9 1009458